Location: Asheville, NC
(35.6000°N, 82.5500°W)
Time: 22:46:44
(UTC-04:00)

Tiangong 2 - Pass Details

Date: 12 October 2017
Orbit: 388 x 391 km, 42.8° (Epoch: 20 October)

Event Time Altitude Azimuth Distance (km) Brightness Sun altitude
Exits shadow 05:16:13 13° 54° (NE) 1,230 4.3 -28.7°
Drops below altitude 10° 05:16:41 10° 56° (NE) 1,417 4.7 -28.6°
Sets 05:18:48 0° 62° (ENE) 2,275 6.1 -28.2°
